User: anonymous   Login
Location: Campillo
(40.8621°N, 4.2488°W)
Time: 17:18:18
(UTC+00:00)
Language:

Cosmos 923 Rocket - Orbit

View from above orbital plane
View from above orbital plane
View from above satellite
View from above satellite

Ground track
Ground track

The orbit data is extracted from the following two-line orbital elements,

1 10121U 77059B   21210.57849105  .00000076  00000-0  35232-4 0  9990
2 10121  74.0461 254.0504 0019916 237.3284 122.5948 14.35998401305366
Epoch (UTC): 29 July 2021 13:53:01
Eccentricity: 0.0019916
inclination: 74.0461°
perigee height: 757 km
apogee height: 786 km
right ascension of ascending node: 254.0504°
argument of perigee: 237.3284°
revolutions per day: 14.35998401
mean anomaly at epoch: 122.5948°
orbit number at epoch: 30536

The dashed part of the orbit path shows where the satellite is in the earth's shadow,  

DLR